Temperature
17 17 17 17 17 16 17 17 16 16 16 17 17 17 17 17 17 17 16 17 17 17 17 16 17 16 16 16 16 16 16 16 16 16 16 16 16 16 16 16 16 16 15
17 17 17 17 16 16 16 16 16 16 16 16 16 16 17 17 16 16 16 16 17 17 16 16 16 16 16 16 16 16 16 16 16 16 16 16 16 16 16 16 16 16 15
17 17 17 17 16 16 16 16 16 16 16 16 16 16 16 16 16 16 16 16 16 16 16 16 16 16 16 16 16 16 16 16 16 16 16 16 16 16 16 16 15 15 15
17 17 17 16 16 16 16 16 16 16 16 16 16 16 16 16 16 16 16 16 16 16 16 16 16 16 16 16 16 16 16 16 16 16 16 16 16 16 16 16 16 15 15
17 17 17 16 16 16 16 16 16 16 16 16 16 16 16 16 16 16 16 16 16 16 16 16 16 16 16 16 16 16 16 16 16 16 16 16 16 16 16 16 16 15 15
17 16 16 16 16 16 16 16 16 16 16 16 17 16 16 16 16 16 16 16 16 16 16 15 16 16 16 16 16 16 16 16 16 16 16 16 16 16 15 15 15 15 15
16 16 16 16 16 16 16 16 16 16 16 16 16 17 17 17 16 16 16 16 16 16 16 15 16 15 15 16 16 16 16 16 16 16 15 15 15 15 15 15 15 15 15
16 16 16 16 16 16 16 16 16 16 16 16 17 17 17 17 16 17 16 16 16 16 16 16 15 15 15 15 15 15 15 15 15 15 15 15 15 15 15 15 15 15 15
16 16 16 16 16 16 16 16 15 15 16 16 16 17 18 18 18 17 16 16 16 16 16 16 15 15 15 15 15 15 15 15 15 15 15 15 15 15 15 15 15 15 15
16 16 16 16 16 16 16 16 15 15 15 16 16 16 17 17 18 18 17 16 16 16 16 16 16 15 15 15 15 15 15 15 15 15 15 15 15 15 15 15 15 15 15
16 16 16 16 16 16 15 15 15 15 16 16 16 16 16 16 17 17 18 17 17 16 16 16 16 16 15 15 15 15 15 15 15 15 15 15 15 15 15 15 15 15 15
16 16 16 16 16 15 15 15 15 15 15 15 16 16 16 17 17 17 18 17 17 17 16 16 16 16 15 15 15 15 15 15 15 15 15 15 15 15 15 15 15 15 15
16 16 16 16 16 15 15 15 15 15 15 15 15 16 16 16 16 17 17 18 17 17 16 16 16 16 16 15 15 15 15 15 15 15 15 15 15 14 14 14 14 14 14
16 16 16 16 16 15 15 15 15 15 15 15 15 15 15 16 16 16 17 17 17 17 17 16 16 16 16 15 15 15 15 15 15 15 15 15 15 15 14 14 14 14 14
16 16 16 16 16 15 15 15 15 15 15 15 15 15 15 15 15 16 16 16 17 18 18 17 16 16 15 15 15 15 14 14 15 15 15 15 15 15 15 15 14 14 14
16 16 16 16 16 16 15 15 15 15 15 15 15 15 15 15 15 15 15 15 16 16 17 17 16 16 15 15 15 15 14 14 15 15 15 15 14 14 14 14 14 14 14
16 16 16 16 16 16 15 15 15 15 15 15 15 15 15 15 15 15 15 15 15 15 16 16 16 15 14 15 15 14 14 14 14 14 15 15 14 14 14 14 14 14 14
16 16 16 16 16 15 15 15 15 15 15 15 15 15 15 15 14 15 15 15 15 15 15 15 15 15 14 14 14 14 14 15 14 15 15 15 15 15 14 14 14 14 14
16 16 16 16 16 16 16 15 15 15 15 15 15 15 15 14 14 14 14 14 14 14 14 15 15 15 14 14 14 14 14 14 15 15 15 15 15 15 15 14 14 14 14
16 16 16 16 16 16 15 15 15 15 15 15 15 15 15 14 14 14 14 14 14 14 14 14 15 15 14 14 14 14 14 15 14 15 15 15 15 15 15 15 14 14 14
16 16 16 16 16 16 15 15 15 15 15 15 15 15 15 14 14 14 14 14 14 14 14 14 15 15 15 15 14 14 15 15 15 14 14 14 14 14 14 14 14 14 14
16 16 16 16 16 16 16 16 15 15 15 15 15 15 15 14 14 14 14 14 14 14 14 14 14 15 14 14 14 14 14 14 14 15 14 14 14 14 14 14 14 14 14
16 16 16 16 16 15 16 16 15 15 15 15 15 15 14 14 14 14 14 14 14 14 13 13 13 14 14 14 13 13 13 13 14 14 13 13 14 14 14 14 14 14 14
16 16 16 15 15 15 15 15 15 15 15 14 14 14 14 14 14 14 14 13 13 13 13 13 13 13 13 13 13 13 13 12 12 13 13 13 13 14 14 14 13 13 13
15 15 15 15 15 15 15 15 15 14 14 14 14 14 14 14 14 13 13 13 13 13 13 13 13 13 13 13 12 12 12 12 13 13 13 12 13 13 13 13 13 13 13
15 15 15 14 14 14 14 14 14 14 14 14 13 13 13 13 13 13 13 12 12 12 12 12 12 12 12 12 12 12 11 11 12 12 13 12 12 12 12 13 13 13 12
Wind_Speed
5 5 4 4 4 4 5 3 3 3 2 3 3 2 2 2 2 2 7 8 7 7 6 6 6 6 6 7 7 8 8 8 9 8 8 8 8 8 8 8 8 8 8
6 5 5 4 4 3 3 3 3 3 2 2 2 2 2 3 3 2 4 8 8 7 7 7 7 7 7 7 7 8 8 9 9 9 9 9 9 9 9 8 9 9 8
6 5 5 4 4 3 4 3 3 3 3 3 2 2 3 2 3 2 3 4 7 9 8 7 7 8 8 8 8 9 9 9 10 10 10 10 10 10 9 9 10 10 10
7 6 4 4 4 4 4 3 4 4 3 3 3 2 3 3 3 3 4 5 4 5 9 9 8 8 8 8 9 9 10 10 11 11 11 11 11 11 11 10 11 11 11
8 6 4 3 5 4 4 4 4 3 3 3 4 3 3 3 3 4 3 4 4 4 6 9 9 8 8 8 9 10 10 10 11 11 12 12 12 13 13 12 11 12 12
8 6 5 5 5 4 4 3 3 2 2 3 3 3 3 3 3 2 3 4 4 5 5 5 8 9 9 8 8 9 10 10 11 11 12 12 13 14 14 13 12 12 13
8 6 5 5 5 5 4 5 4 5 4 3 3 4 4 4 3 2 2 2 3 3 3 4 4 4 7 9 8 8 9 10 10 11 11 12 12 13 14 14 14 14 14
8 7 6 6 5 4 5 5 4 4 3 4 4 4 4 5 4 3 3 4 3 4 4 5 4 3 3 5 8 7 7 8 9 10 11 11 11 12 13 14 15 16 16
9 7 7 6 5 6 5 6 6 6 4 4 3 3 3 2 4 4 3 3 3 2 3 3 5 4 4 3 5 7 5 5 7 8 8 10 11 11 12 13 15 16 17
9 9 8 7 6 5 4 6 6 5 5 5 4 3 3 3 2 3 5 5 4 4 3 3 4 5 5 4 3 4 5 4 4 4 5 6 8 9 10 11 12 13 15
9 9 8 7 6 5 5 4 5 6 5 5 4 4 4 3 5 4 3 4 4 4 4 4 4 4 4 4 4 6 6 5 5 4 4 4 5 6 8 9 10 11 12
8 9 9 8 7 6 6 6 6 7 5 4 4 4 4 4 5 5 4 5 4 4 4 3 4 5 5 5 5 8 7 6 5 5 4 4 5 6 7 8 9 9 10
8 9 9 8 7 7 6 6 6 6 6 5 6 5 5 5 4 5 5 4 4 4 4 5 5 5 6 5 5 8 8 7 6 6 5 5 6 7 7 8 9 9 9
8 9 10 10 9 8 8 7 7 6 5 6 6 5 5 5 4 5 5 5 5 6 6 6 5 6 5 6 5 8 7 10 8 7 7 7 7 8 8 9 10 10 11
8 10 10 10 9 9 9 8 7 7 6 7 7 7 7 5 5 5 5 6 7 7 6 6 6 5 6 5 5 7 8 9 9 9 9 9 9 9 10 10 11 11 12
9 10 11 10 10 10 10 9 8 8 8 7 6 6 6 6 5 6 6 6 6 7 6 3 5 5 4 5 7 8 9 8 11 12 12 11 11 12 12 12 12 12 12
10 11 11 11 10 11 10 10 10 9 10 9 9 9 9 8 6 6 6 6 7 7 8 6 5 5 6 8 6 8 10 10 12 17 15 14 14 14 15 14 14 14 14
11 11 11 11 11 11 11 11 11 11 11 11 10 10 10 8 9 8 7 8 7 7 8 8 7 6 8 8 8 8 10 11 11 12 16 16 17 17 18 17 17 17 17
11 11 11 11 11 11 11 11 12 11 11 11 11 11 11 10 10 9 9 9 8 8 8 9 9 6 7 8 8 10 11 9 12 12 15 18 20 20 20 20 20 20 20
11 11 11 11 11 11 11 11 11 11 12 12 11 11 12 12 12 11 10 10 9 9 9 9 9 8 8 8 8 9 9 9 10 11 11 12 15 20 22 23 23 23 23
11 11 11 11 11 10 10 11 11 11 11 11 11 11 12 11 10 10 10 10 10 10 10 10 10 9 9 8 8 8 9 9 9 9 9 10 11 13 15 22 25 26 25
10 10 11 11 11 9 7 8 10 11 10 11 11 11 11 10 10 11 11 10 10 11 11 10 10 10 10 9 8 9 9 9 10 8 8 10 10 11 11 14 16 20 23
8 8 8 9 9 7 6 8 11 10 10 10 10 10 10 9 10 11 12 14 14 14 13 12 13 12 10 9 9 10 10 11 11 9 8 12 11 12 12 14 12 15 19
6 6 6 6 6 4 4 7 8 10 10 10 10 10 10 9 8 9 11 12 13 13 14 14 14 13 11 9 9 11 11 11 12 12 11 13 13 13 12 13 13 18 21
4 4 4 4 4 2 3 4 6 7 8 9 9 8 9 9 5 5 9 11 12 11 11 12 12 12 11 10 9 9 11 11 13 12 10 11 13 13 13 12 14 17 21
4 3 3 2 1 0 2 2 4 5 6 6 6 5 4 5 4 5 8 10 11 10 9 9 10 12 13 13 13 12 12 12 13 12 10 9 12 12 13 12 11 11 13
Wind_Direction
163 154 156 161 170 156 163 174 174 156 180 179 176 167 169 149 130 142 133 147 157 166 172 178 184 188 188 187 183 183 185 182 177 176 177 175 176 176 176 175 174 173 174
161 164 169 172 171 172 161 179 164 173 180 163 169 156 184 166 145 188 158 158 169 178 184 188 192 193 194 197 197 197 195 193 189 188 188 187 187 189 189 190 188 187 188
166 175 171 177 168 163 163 180 172 173 172 170 170 169 174 182 162 172 175 176 174 182 189 194 200 202 202 204 205 204 204 203 200 199 198 198 198 198 200 202 198 197 198
176 185 180 179 167 180 178 176 192 183 177 177 169 178 164 164 176 187 183 187 192 186 182 189 201 207 209 209 211 211 209 209 208 207 207 207 206 207 209 209 208 207 207
181 191 189 169 183 186 188 200 173 199 180 180 175 171 180 175 183 188 184 188 185 198 184 173 188 200 208 210 213 215 213 212 212 213 214 216 214 214 216 215 215 216 216
183 189 185 184 198 191 188 187 165 188 192 197 194 163 185 177 193 172 199 187 186 193 190 175 182 186 194 204 212 216 217 216 217 216 216 220 221 221 221 221 222 223 222
181 189 189 184 203 196 194 187 188 181 193 188 193 184 182 185 183 187 209 206 178 184 182 182 202 189 181 189 199 208 215 218 218 219 220 221 223 225 225 223 226 228 228
185 186 191 193 195 191 194 197 208 214 188 197 225 206 193 181 197 190 197 206 206 193 193 193 185 203 232 185 166 188 208 218 219 220 223 225 225 227 226 227 229 232 232
190 190 192 202 195 208 195 201 203 214 206 195 229 249 236 211 167 173 194 202 207 204 212 191 196 192 212 205 171 173 188 210 217 220 223 226 229 230 228 230 232 234 235
189 191 194 198 202 208 194 205 200 209 216 205 192 244 295 347 257 182 187 182 195 212 220 226 198 188 199 195 149 137 163 182 193 204 220 226 231 232 232 234 236 236 237
193 195 195 195 198 204 202 211 193 217 217 228 213 207 213 223 250 258 213 189 197 196 195 212 218 206 193 201 193 155 161 181 193 203 216 226 230 234 235 237 240 242 241
193 196 197 198 201 199 196 204 207 210 229 235 243 231 229 233 233 241 239 224 216 198 198 215 222 211 212 213 190 142 173 191 201 210 219 229 236 241 240 240 243 246 248
197 194 199 200 202 201 202 206 210 219 216 218 231 236 242 248 258 256 258 245 236 214 204 220 214 217 221 214 177 165 189 195 204 212 222 231 239 244 246 247 246 249 251
203 193 200 202 205 205 206 205 215 213 214 220 228 238 243 239 244 247 252 253 241 230 215 220 208 219 225 224 168 191 198 192 206 217 226 233 240 245 249 249 249 250 252
202 197 202 204 205 207 210 210 219 218 215 222 221 215 231 228 234 242 246 252 260 256 235 201 222 207 218 224 182 226 230 193 208 224 231 237 242 246 250 251 252 251 251
203 200 204 206 208 209 210 215 217 216 219 224 233 232 232 234 229 235 238 242 253 266 270 238 213 213 218 240 199 230 242 198 222 228 234 240 244 247 249 250 251 251 252
202 204 206 207 210 213 213 215 222 214 220 222 222 221 225 240 236 232 232 237 241 247 256 256 235 217 220 252 227 235 242 239 236 215 224 236 243 246 247 248 249 250 252
204 206 208 211 214 216 215 218 223 220 222 225 225 225 226 223 226 240 239 238 240 244 251 256 250 229 219 233 240 246 250 245 254 215 214 232 241 244 246 247 248 249 251
206 207 208 212 216 218 219 222 225 226 227 229 228 227 229 229 228 230 233 238 236 232 237 248 248 242 237 232 234 240 247 251 258 241 217 227 236 240 244 246 247 248 250
207 207 210 215 219 222 224 226 226 230 231 232 232 231 232 230 231 233 232 235 239 241 235 243 248 242 236 231 236 247 247 234 245 256 248 238 232 232 238 241 244 246 248
210 211 215 219 223 225 227 227 229 230 230 232 233 234 236 237 242 240 243 235 232 236 239 239 244 246 242 236 238 248 256 259 250 251 256 253 242 239 237 236 237 241 242
213 214 218 221 223 229 212 213 231 237 233 235 236 235 237 230 231 231 248 257 257 245 247 251 252 251 254 252 254 259 262 262 265 254 252 262 263 261 256 255 237 227 232
208 211 217 222 226 228 191 205 224 241 243 240 238 237 239 232 220 231 227 231 242 247 250 256 261 262 263 258 260 257 258 265 271 276 270 268 267 265 263 262 240 224 230
198 204 214 222 227 224 187 212 222 233 243 243 241 239 240 242 236 238 242 239 240 237 234 237 249 259 264 271 262 260 269 265 264 260 258 265 269 269 270 269 245 227 233
191 200 206 216 221 216 166 201 222 234 240 244 246 246 246 244 238 241 248 250 251 250 240 235 243 254 266 269 263 261 260 261 265 266 256 260 270 274 273 270 263 237 232
172 179 167 172 190 197 106 180 228 242 248 248 244 240 239 251 248 231 247 253 255 257 261 251 239 245 251 248 234 240 253 259 266 272 270 263 269 275 277 273 271 266 251
Height
1566 1568 1569 1570 1572 1572 1573 1574 1575 1576 1577 1578 1579 1580 1581 1582 1583 1583 1583 1583 1583 1584 1585 1586 1587 1588 1589 1589 1590 1591 1592 1593 1594 1595 1596 1597 1597 1598 1599 1600 1600 1601 1602
1566 1567 1568 1570 1571 1572 1573 1574 1575 1575 1577 1578 1578 1579 1580 1581 1581 1582 1583 1583 1583 1584 1585 1586 1587 1587 1588 1589 1590 1591 1592 1593 1594 1595 1596 1596 1597 1598 1599 1600 1600 1601 1602
1565 1567 1568 1569 1571 1571 1572 1573 1574 1575 1576 1577 1577 1578 1579 1580 1582 1582 1583 1583 1584 1584 1585 1585 1586 1587 1587 1588 1589 1590 1591 1592 1593 1594 1595 1596 1597 1598 1598 1599 1600 1601 1601
1564 1566 1568 1569 1569 1570 1572 1572 1574 1575 1576 1577 1577 1578 1579 1580 1580 1581 1582 1582 1583 1584 1584 1584 1585 1586 1586 1587 1588 1589 1590 1591 1592 1593 1594 1595 1596 1597 1597 1598 1599 1600 1600
1563 1565 1567 1568 1569 1570 1571 1572 1573 1574 1575 1576 1577 1577 1579 1580 1580 1581 1582 1582 1582 1583 1584 1583 1584 1584 1585 1586 1587 1588 1589 1590 1591 1592 1592 1593 1594 1595 1596 1597 1598 1598 1599
1562 1564 1565 1566 1568 1569 1570 1571 1572 1573 1574 1575 1577 1578 1578 1579 1580 1580 1581 1582 1582 1582 1583 1583 1583 1584 1584 1585 1585 1586 1587 1588 1589 1590 1591 1591 1592 1593 1594 1595 1596 1597 1597
1560 1562 1565 1565 1567 1568 1569 1570 1572 1572 1574 1574 1576 1577 1578 1578 1579 1580 1580 1581 1581 1582 1582 1582 1583 1584 1584 1583 1584 1584 1585 1586 1587 1587 1588 1589 1590 1591 1592 1593 1594 1594 1595
1559 1562 1563 1564 1566 1567 1568 1569 1570 1572 1573 1574 1575 1576 1577 1578 1578 1579 1579 1580 1580 1581 1581 1581 1582 1582 1583 1583 1583 1583 1583 1584 1584 1585 1586 1587 1588 1588 1589 1590 1591 1592 1592
1558 1560 1562 1564 1564 1566 1567 1568 1569 1570 1572 1573 1574 1575 1575 1575 1576 1578 1578 1579 1579 1580 1580 1580 1581 1581 1582 1582 1582 1581 1582 1582 1583 1583 1584 1584 1585 1585 1586 1587 1588 1588 1589
1557 1559 1560 1562 1563 1565 1565 1567 1568 1569 1570 1572 1572 1573 1574 1574 1575 1576 1577 1577 1578 1578 1579 1580 1580 1580 1580 1581 1580 1580 1580 1580 1581 1581 1581 1582 1582 1582 1583 1583 1584 1585 1586
1555 1557 1559 1560 1561 1563 1564 1565 1566 1567 1569 1570 1571 1572 1573 1573 1574 1575 1575 1577 1577 1578 1578 1578 1579 1579 1579 1580 1579 1579 1578 1579 1579 1579 1579 1579 1579 1580 1580 1580 1581 1581 1582
1553 1555 1557 1558 1560 1561 1562 1563 1564 1565 1567 1568 1569 1570 1571 1572 1573 1573 1574 1575 1575 1576 1576 1577 1577 1578 1578 1578 1578 1577 1577 1577 1577 1577 1577 1577 1577 1577 1577 1577 1578 1578 1579
1551 1552 1555 1556 1558 1559 1560 1561 1562 1564 1565 1565 1566 1568 1569 1570 1571 1572 1572 1573 1574 1574 1574 1575 1575 1576 1576 1576 1576 1575 1575 1575 1575 1574 1574 1574 1574 1574 1574 1574 1574 1574 1575
1548 1550 1552 1554 1556 1557 1558 1559 1561 1562 1562 1563 1565 1565 1567 1568 1569 1570 1571 1571 1572 1572 1572 1573 1573 1573 1574 1574 1574 1573 1573 1572 1572 1572 1572 1571 1571 1571 1570 1570 1570 1570 1571
1546 1548 1550 1552 1553 1555 1556 1557 1559 1559 1560 1561 1562 1563 1564 1566 1566 1567 1568 1569 1570 1569 1569 1570 1571 1571 1571 1571 1570 1571 1571 1570 1570 1569 1569 1568 1568 1568 1567 1567 1566 1566 1566
1543 1545 1547 1549 1551 1552 1553 1554 1556 1556 1557 1558 1559 1560 1561 1563 1564 1564 1565 1566 1567 1568 1567 1567 1568 1568 1568 1569 1567 1567 1568 1567 1566 1566 1566 1565 1565 1564 1564 1563 1563 1563 1562
1539 1542 1544 1546 1548 1549 1551 1552 1553 1554 1555 1556 1556 1557 1558 1559 1561 1562 1562 1563 1564 1565 1565 1565 1565 1565 1563 1564 1564 1564 1564 1563 1564 1562 1562 1561 1561 1560 1560 1559 1559 1558 1558
1536 1538 1541 1543 1545 1546 1548 1549 1550 1551 1552 1553 1553 1554 1555 1556 1556 1558 1559 1560 1560 1561 1561 1562 1562 1561 1560 1560 1560 1559 1561 1561 1560 1559 1557 1556 1556 1556 1555 1555 1554 1554 1554
1533 1535 1538 1540 1541 1543 1544 1545 1547 1548 1549 1550 1550 1551 1551 1552 1552 1554 1554 1556 1556 1557 1557 1558 1558 1558 1557 1557 1556 1556 1556 1555 1555 1555 1553 1551 1551 1550 1550 1550 1549 1549 1548
1530 1532 1534 1536 1538 1539 1541 1542 1543 1544 1545 1546 1546 1547 1547 1548 1548 1549 1550 1550 1551 1552 1553 1553 1553 1553 1553 1553 1552 1552 1552 1551 1550 1550 1549 1548 1546 1545 1544 1544 1543 1543 1542
1526 1528 1530 1532 1534 1535 1537 1538 1539 1540 1541 1541 1542 1542 1543 1543 1544 1545 1546 1547 1547 1547 1548 1548 1548 1548 1548 1548 1548 1548 1548 1547 1546 1545 1544 1543 1542 1540 1539 1537 1536 1536 1536
1522 1524 1526 1528 1529 1531 1532 1533 1535 1536 1536 1536 1537 1537 1538 1538 1538 1539 1540 1540 1541 1542 1542 1543 1543 1543 1543 1543 1543 1542 1542 1542 1541 1541 1539 1538 1537 1535 1534 1533 1531 1529 1528
1519 1520 1522 1524 1525 1526 1527 1528 1529 1530 1531 1531 1532 1532 1533 1533 1533 1533 1533 1534 1534 1535 1536 1536 1537 1537 1537 1537 1537 1537 1536 1535 1534 1534 1533 1531 1530 1528 1527 1526 1524 1522 1521
1515 1516 1518 1520 1521 1521 1522 1523 1524 1525 1525 1526 1526 1527 1527 1527 1528 1528 1528 1528 1528 1528 1528 1529 1529 1529 1530 1530 1530 1530 1529 1528 1526 1526 1525 1524 1523 1522 1520 1519 1516 1514 1513
1511 1513 1514 1515 1516 1517 1518 1519 1519 1520 1520 1520 1521 1521 1521 1521 1521 1522 1522 1522 1522 1522 1522 1522 1522 1522 1523 1523 1523 1523 1522 1522 1520 1520 1519 1517 1515 1514 1512 1511 1509 1506 1504
1508 1510 1511 1512 1513 1513 1514 1514 1515 1515 1515 1516 1516 1516 1515 1516 1515 1515 1516 1516 1516 1516 1517 1516 1515 1515 1515 1515 1515 1514 1514 1514 1513 1512 1511 1510 1508 1507 1504 1503 1502 1500 1497